GW0268 Weather Reports


time (UTC)temp
F
wind
direction
speed
knots
gust
knots
rain 1hr
in
rain 24hr
in
rain mn
in
humidity
%
barometer
mb
20260507070923 42 292 0.9 3.5 0.00 0.51 0.00 47 994.3
20260507070022 43 288 0.9 3.5 0.00 0.51 0.00 52 994.3
20260507065024 43 292 0.0 0.0 0.00 0.51 0.00 51 994.3
20260507064024 43 292 0.0 1.7 0.00 0.51 0.00 51 994.6
20260507063023 43 337 0.0 0.0 0.00 0.51 0.00 51 994.6
20260507062026 43 302 0.0 1.7 0.00 0.51 0.00 46 994.6
20260507061023 43 337 0.0 0.0 0.00 0.52 0.00 51 994.6
20260507060025 43 348 0.0 0.9 0.00 0.52 0.00 46 994.6
20260507055024 43 315 0.0 0.0 0.00 0.52 0.00 51 994.6
20260507054124 43 315 0.0 0.0 0.00 0.52 0.00 51 994.6
20260507053223 43 317 0.0 0.0 0.00 0.52 0.00 51 994.6
20260507051224 44 337 0.0 0.0 0.00 0.52 0.00 51 994.9
20260507050224 44 315 0.0 0.0 0.00 0.52 0.00 50 994.9
20260507045323 44 295 0.0 1.7 0.00 0.52 0.00 52 994.9
20260507044325 44 277 2.6 7.8 0.00 0.52 0.00 50 994.9
20260507043422 44 336 0.0 0.0 0.00 0.52 0.00 45 994.9
20260507042424 44 326 0.0 0.0 0.00 0.52 0.00 45 994.6
20260507041425 44 302 1.7 5.2 0.00 0.52 0.00 45 994.8
20260507040423 45 292 0.0 1.7 0.00 0.52 0.00 45 994.6
20260507034431 45 315 0.0 0.0 0.00 0.52 0.52 45 994.3
20260507033431 45 341 0.0 0.0 0.00 0.52 0.52 44 994.3
20260507032433 45 27 0.0 1.7 0.00 0.52 0.52 44 994.3
20260507031532 45 333 0.0 0.0 0.00 0.52 0.52 47 994.3
20260507030532 45 336 0.0 0.0 0.00 0.52 0.52 48 994.3
20260507025532 46 354 0.0 0.0 0.00 0.52 0.52 48 994.3
20260507024531 46 337 0.0 0.0 0.00 0.52 0.52 46 994.3
20260507023532 46 349 0.0 0.9 0.00 0.52 0.52 48 994.3
20260507022631 46 38 0.0 1.7 0.00 0.52 0.52 51 993.9
20260507021632 46 225 0.0 0.0 0.00 0.52 0.52 51 993.9
20260507020632 46 225 0.0 0.0 0.00 0.52 0.52 51 993.9
20260507014633 46 225 0.9 1.7 0.00 0.53 0.52 51 993.9
20260507013731 46 247 0.9 1.7 0.00 0.53 0.52 50 993.9
20260507012732 46 225 0.9 1.7 0.00 0.54 0.52 51 993.9
20260507011732 46 208 0.9 1.7 0.00 0.54 0.52 51 993.9
20260507005732 46 45 0.0 0.0 0.00 0.54 0.52 51 993.9
20260507004734 46 45 0.0 0.0 0.00 0.54 0.52 51 993.6
20260507003832 45 45 0.0 0.0 0.00 0.54 0.52 50 993.6
20260507002832 45 45 0.0 0.0 0.00 0.54 0.52 50 993.6
20260507002734 45 45 0.0 0.0 0.00 0.54 0.52 50 993.6
20260506235732 46 45 0.0 0.0 0.00 0.56 0.52 50 993.2
20260506234734 46 45 0.0 0.0 0.00 0.57 0.52 50 993.2
20260506232732 46 45 0.0 0.0 0.00 0.57 0.52 50 993.2
20260506231733 46 45 0.0 0.0 0.00 0.57 0.52 51 993.2
20260506230733 46 45 0.0 0.0 0.00 0.57 0.52 50 993.2
20260506225832 46 45 0.0 0.0 0.00 0.57 0.52 51 992.9
20260506224834 46 45 0.0 0.0 0.00 0.57 0.52 50 992.6
20260506223930 46 45 0.0 0.0 0.00 0.57 0.52 42 992.6
20260506222932 46 45 0.0 0.0 0.01 0.57 0.52 42 992.6
20260506221932 46 67 0.9 1.7 0.01 0.57 0.52 42 992.6
20260506220932 46 45 0.0 1.7 0.02 0.57 0.52 42 992.9
20260506215931 46 67 0.0 1.7 0.02 0.57 0.52 42 993.2
20260506214933 46 45 0.0 0.0 0.02 0.57 0.52 41 992.9
20260506214031 45 67 0.9 2.6 0.02 0.57 0.52 49 992.9
20260506213035 45 57 0.9 3.5 0.02 0.57 0.51 49 992.9
20260506211131 45 44 0.0 2.6 0.03 0.57 0.50 50 992.6
20260506210132 46 35 0.0 3.5 0.02 0.56 0.50 51 992.6
20260506205130 45 53 0.9 2.6 0.02 0.56 0.50 50 992.6
20260506204135 46 48 0.9 3.5 0.03 0.56 0.50 51 992.6
20260506203231 46 22 0.0 0.0 0.03 0.57 0.50 50 992.6
20260506201232 46 337 0.0 0.0 0.02 0.57 0.48 50 992.2
20260506195331 46 28 0.0 2.6 0.03 0.57 0.48 50 992.2
20260506194332 46 31 0.0 5.2 0.04 0.57 0.47 50 992.2
20260506193333 47 44 0.9 5.2 0.03 0.57 0.47 50 992.2
20260506192334 47 24 0.9 3.5 0.03 0.56 0.46 51 991.9
20260506191431 47 332 0.0 0.0 0.03 0.56 0.46 41 991.9
20260506190433 47 357 0.0 1.7 0.04 0.56 0.46 41 991.9
20260506185431 47 338 0.0 0.0 0.03 0.55 0.45 41 991.5
20260506184430 47 360 0.0 0.0 0.03 0.54 0.44 41 991.5
20260506183434 47 348 0.0 0.0 0.04 0.54 0.44 41 991.9
20260506182431 47 337 0.0 0.0 0.04 0.54 0.43 42 991.5
20260506175633 47 333 0.0 1.7 0.04 0.52 0.42 51 991.1
20260506174731 47 28 0.0 0.0 0.04 0.53 0.41 50 991.1
20260506173732 47 67 0.9 1.7 0.04 0.53 0.40 52 990.8
20260506172731 46 67 0.0 1.7 0.04 0.54 0.40 52 990.8
20260506171732 46 47 0.9 2.6 0.04 0.53 0.39 50 990.8
20260506170731 46 33 0.0 1.7 0.04 0.52 0.38 51 990.8
20260506165731 46 14 0.0 0.0 0.04 0.52 0.38 50 990.8
20260506164730 46 59 1.7 4.3 0.04 0.51 0.37 51 990.8
20260506162731 46 337 0.0 0.0 0.04 0.50 0.36 50 990.4
20260506161747 46 3 0.0 0.0 0.04 0.49 0.35 50 990.4
20260506160731 45 336 0.0 0.0 0.04 0.48 0.34 50 990.8
20260506155732 45 333 0.0 0.0 0.04 0.48 0.34 49 990.4
20260506153831 45 9 0.0 2.6 0.04 0.46 0.32 47 990.4
20260506152832 45 337 0.0 0.0 0.04 0.46 0.32 47 990.4
20260506151832 44 358 0.0 0.9 0.04 0.45 0.31 48 990.5
20260506145834 44 315 0.0 0.0 0.04 0.44 0.30 47 990.4
20260506144832 44 336 0.0 1.7 0.04 0.43 0.28 46 990.2
20260506143932 44 336 0.0 0.0 0.04 0.42 0.28 43 990.1
20260506142933 44 337 0.0 0.0 0.04 0.42 0.28 43 989.8
20260506141931 44 337 0.0 0.0 0.04 0.41 0.27 43 990.1
20260506141030 44 292 0.0 0.9 0.04 0.40 0.26 49 990.1
20260506140036 44 328 0.0 0.0 0.04 0.40 0.26 49 990.1
20260506135033 44 291 1.7 7.0 0.04 0.39 0.25 47 990.4
20260506133034 44 337 0.0 0.0 0.04 0.38 0.24 46 990.1
20260506132130 44 345 0.0 0.0 0.04 0.37 0.23 45 990.1
20260506131131 44 338 0.0 0.0 0.04 0.36 0.22 43 990.4
20260506130130 44 337 0.0 0.0 0.04 0.36 0.22 43 990.4
20260506125131 44 350 0.0 0.0 0.04 0.35 0.21 40 990.4
20260506124132 44 335 0.0 0.0 0.04 0.34 0.20 40 990.4
20260506123131 44 356 0.0 0.0 0.04 0.34 0.20 40 990.1
20260506122132 44 10 0.0 0.0 0.04 0.33 0.19 40 990.4
20260506121132 44 22 0.0 0.0 0.04 0.32 0.18 40 990.1
20260506120133 44 315 0.0 0.0 0.04 0.32 0.18 40 990.1
20260506115133 44 22 0.0 3.5 0.04 0.31 0.17 40 990.1
20260506113233 44 345 0.0 0.0 0.04 0.30 0.16 40 990.1
20260506112330 44 335 0.0 5.2 0.04 0.28 0.15 40 990.0
20260506111332 44 345 0.9 7.8 0.04 0.28 0.14 40 989.8
20260506110331 45 23 0.0 3.5 0.04 0.28 0.14 40 990.1
20260506102432 46 324 0.0 0.0 0.03 0.25 0.11 40 989.8
20260506101431 46 337 0.0 0.0 0.04 0.25 0.10 39 989.8
20260506095432 47 357 0.0 0.0 0.04 0.24 0.10 39 989.4
20260506094432 47 22 0.0 0.0 0.04 0.23 0.09 39 989.8
20260506093430 47 2 0.0 3.5 0.04 0.22 0.08 38 989.8
20260506092432 47 344 0.0 0.0 0.04 0.22 0.08 38 989.8
20260506091433 47 6 0.0 3.5 0.03 0.21 0.07 38 990.1
20260506090531 47 8 0.0 1.7 0.03 0.20 0.06 37 990.4
20260506085532 48 328 0.0 0.9 0.04 0.20 0.06 37 990.4
20260506084631 48 34 0.0 3.5 0.03 0.19 0.05 37 990.4
20260506083631 48 22 0.0 0.0 0.03 0.19 0.04 37 990.4
20260506082632 48 337 0.0 0.0 0.02 0.18 0.04 37 990.4
20260506081633 48 3 0.0 0.0 0.03 0.18 0.04 37 990.8
20260506080632 47 327 0.0 0.0 0.02 0.17 0.03 37 990.4
20260506072731 48 292 0.0 0.0 0.01 0.16 0.02 37 990.1